M I D A S
Marine Information and Data Acquisition System
Tripno 557 of the Zeeleeuw from 2003-08-27 06:17:15 to 2003-08-27 12:06:54
Back to CruiseResearch ActivitiesStationsMapUnderway DataData graphs

EquipmentUnitsComments
TimeDGPSUTC
LatitudeDGPSDM.mWGS84
LongitudeDGPSDM.mWGS84
SpeedMeteo Stationm/sRelative wind speed
DirectionMeteo StationdegRelative wind direction
TemperatureMeteo Stationdeg CelciusAir temperature
PressureMeteo StationPaAtmospheric pressure
HumidityMeteo Station%Relative humidity
Missing or incorrect values are displayed as -999
Metereological data collected by the RV Zeeleeuw from 2003-08-27 06:17:15 to 2003-08-27 12:06:54
Time Latitude Longitude Speed Direction Temperature Pressure Humidity
2003-08-27 06:18 51°13.6 2°56.11 3.3 255 17.9 101510 66
2003-08-27 06:19 51°13.59 2°56.11 2.1 257 17.9 101510 67
2003-08-27 06:20 51°13.6 2°56.11 2.2 230 18 101510 67
2003-08-27 06:21 51°13.6 2°56.11 3.5 241 18 101510 67
2003-08-27 06:22 51°13.6 2°56.11 3.5 246 18 101510 67
2003-08-27 06:23 51°13.6 2°56.11 3.9 264 18 101510 67
2003-08-27 06:24 51°13.6 2°56.11 5.9 265 18 101510 67
2003-08-27 06:25 51°13.6 2°56.1 3.9 232 17.9 101520 67
2003-08-27 06:26 51°13.62 2°56.01 5 234 18 101510 68
2003-08-27 06:27 51°13.65 2°55.88 5 203 18 101510 67
2003-08-27 06:28 51°13.68 2°55.82 2.7 231 18 101510 67
2003-08-27 06:29 51°13.68 2°55.78 5 263 18 101510 69
2003-08-27 06:30 51°13.68 2°55.76 5.2 311 17.9 101500 68
2003-08-27 06:31 51°13.71 2°55.77 8 3 18 101500 67
2003-08-27 06:32 51°13.77 2°55.7 7.9 24 18 101500 67
2003-08-27 06:33 51°13.9 2°55.58 10.2 19 18 101490 67
2003-08-27 06:34 51°14.01 2°55.5 9.4 24 18 101500 67
2003-08-27 06:35 51°14.13 2°55.42 10.2 13 18 101490 67
2003-08-27 06:36 51°14.25 2°55.29 8.6 23 17.9 101500 65
2003-08-27 06:38 51°14.37 2°55.07 11.8 44 18 101500 65
2003-08-27 06:39 51°14.48 2°54.85 11.9 20 18 101480 65
2003-08-27 06:40 51°14.61 2°54.67 12.5 24 17.9 101490 62
2003-08-27 06:41 51°14.78 2°54.51 12.2 13 18 101490 62
2003-08-27 06:42 51°14.97 2°54.37 12.9 16 18 101480 62
2003-08-27 06:43 51°15.14 2°54.22 12.5 18 18 101490 63
2003-08-27 06:44 51°15.32 2°54.05 11.5 13 18 101490 65
2003-08-27 06:45 51°15.51 2°53.88 14.6 16 18 101480 65
2003-08-27 06:46 51°15.69 2°53.69 12.7 20 18 101490 63
2003-08-27 06:47 51°15.87 2°53.53 13.4 17 18 101490 64
2003-08-27 06:48 51°16.06 2°53.34 12.7 12 18 101490 64
2003-08-27 06:49 51°16.23 2°53.16 14 15 17.9 101480 63
2003-08-27 06:50 51°16.43 2°52.98 13.4 14 17.9 101480 61
2003-08-27 06:51 51°16.61 2°52.82 13.2 18 17.9 101490 62
2003-08-27 06:52 51°16.79 2°52.66 12.7 7 17.9 101490 63
2003-08-27 06:53 51°17.01 2°52.54 12.6 5 17.9 101500 64
2003-08-27 06:54 51°17.21 2°52.44 13.7 7 17.9 101510 65
2003-08-27 06:55 51°17.41 2°52.38 14.4 8 17.9 101500 63
2003-08-27 06:56 51°17.61 2°52.32 14.2 8 17.9 101500 63
2003-08-27 06:57 51°17.8 2°52.25 12.5 7 17.9 101490 61
2003-08-27 06:58 51°18.01 2°52.21 14.9 1 17.8 101490 62
2003-08-27 06:59 51°18.2 2°52.22 12.9 349 17.9 101490 64
2003-08-27 07:01 51°18.39 2°52.42 12.9 332 18 101490 64
2003-08-27 07:02 51°18.49 2°52.74 11 331 18 101500 63
2003-08-27 07:03 51°18.56 2°53.02 10.4 334 18 101490 65
2003-08-27 07:04 51°18.65 2°53.37 12.3 324 18 101500 63
2003-08-27 07:05 51°18.71 2°53.67 11.7 330 18 101490 64
2003-08-27 07:06 51°18.8 2°54.05 13.5 315 18 101500 62
2003-08-27 07:08 51°18.87 2°54.36 11.1 329 18 101490 63
2003-08-27 07:09 51°18.94 2°54.67 11.7 321 18 101500 62
2003-08-27 07:10 51°19.02 2°54.98 10.9 324 18 101500 63
2003-08-27 07:11 51°19.1 2°55.31 10.4 332 18 101490 64
2003-08-27 07:12 51°19.17 2°55.61 13.2 323 18 101490 65
2003-08-27 07:13 51°19.24 2°55.91 12.6 321 18 101500 63
2003-08-27 07:14 51°19.32 2°56.25 11.7 322 18 101500 65
2003-08-27 07:15 51°19.4 2°56.63 12.2 325 18 101490 63
2003-08-27 07:16 51°19.47 2°56.97 10.7 328 18 101490 63
2003-08-27 07:18 51°19.56 2°57.31 12.6 322 18 101480 65
2003-08-27 07:19 51°19.65 2°57.65 12.1 328 18 101490 66
2003-08-27 07:20 51°19.73 2°58 10.3 323 18 101480 64
2003-08-27 07:21 51°19.82 2°58.33 13.2 335 18 101490 66
2003-08-27 07:22 51°19.91 2°58.69 15 331 18 101490 66
2003-08-27 07:24 51°19.99 2°59.03 13.9 334 18 101490 66
2003-08-27 07:25 51°20.07 2°59.35 13.5 334 17.9 101490 65
2003-08-27 07:26 51°20.16 2°59.69 11.1 337 17.9 101480 66
2003-08-27 07:27 51°20.24 3°0.05 13.1 337 17.9 101480 66
2003-08-27 07:28 51°20.33 3°0.41 12.4 323 17.9 101470 65
2003-08-27 07:30 51°20.41 3°0.75 13.5 323 17.9 101470 63
2003-08-27 07:31 51°20.49 3°1.05 12.6 335 17.9 101470 63
2003-08-27 07:32 51°20.57 3°1.38 12 330 17.9 101470 65
2003-08-27 07:33 51°20.63 3°1.67 11.7 325 17.9 101470 62
2003-08-27 07:34 51°20.73 3°2.06 12.9 333 17.9 101470 63
2003-08-27 07:35 51°20.82 3°2.42 12 325 17.9 101470 63
2003-08-27 07:37 51°20.9 3°2.78 12.6 323 17.9 101470 64
2003-08-27 07:38 51°20.98 3°3.11 13.9 325 17.9 101470 63
2003-08-27 07:39 51°21.06 3°3.42 13.2 329 17.9 101480 62
2003-08-27 07:40 51°21.15 3°3.79 13.3 331 17.9 101480 61
2003-08-27 07:41 51°21.23 3°4.14 12.3 324 17.9 101470 62
2003-08-27 07:43 51°21.32 3°4.51 13.1 329 17.9 101470 63
2003-08-27 07:44 51°21.39 3°4.82 11.1 326 17.9 101480 61
2003-08-27 07:45 51°21.47 3°5.15 13.1 323 17.9 101480 61
2003-08-27 07:46 51°21.55 3°5.55 12.1 324 17.9 101480 61
2003-08-27 07:47 51°21.62 3°5.96 11.5 318 18 101460 61
2003-08-27 07:49 51°21.68 3°6.33 11.2 319 17.9 101470 60
2003-08-27 07:50 51°21.74 3°6.64 11.5 324 18 101480 61
2003-08-27 07:51 51°21.8 3°6.97 10.3 320 18 101460 62
2003-08-27 07:52 51°21.86 3°7.3 10.7 42 17.9 101470 62
2003-08-27 07:53 51°21.92 3°7.63 10.7 323 18 101480 62
2003-08-27 07:54 51°21.98 3°7.98 12.3 329 18 101470 61
2003-08-27 07:55 51°22.04 3°8.33 12.4 329 18 101470 61
2003-08-27 07:56 51°22.08 3°8.7 10.6 326 17.9 101470 61
2003-08-27 07:57 51°22.11 3°9.08 10.9 321 18 101470 62
2003-08-27 07:59 51°22.14 3°9.49 11.1 328 18 101480 60
2003-08-27 08:00 51°22.19 3°9.85 12.6 318 18 101480 61
2003-08-27 08:01 51°22.26 3°10.2 12.9 323 18 101480 59
2003-08-27 08:02 51°22.35 3°10.53 12.2 329 17.9 101470 59
2003-08-27 08:03 51°22.43 3°10.83 10 318 18 101470 59
2003-08-27 08:04 51°22.5 3°11.13 11.9 320 18 101480 61
2003-08-27 08:05 51°22.57 3°11.54 11.3 326 18 101480 59
2003-08-27 08:07 51°22.64 3°11.95 11.1 321 18 101470 58
2003-08-27 08:08 51°22.68 3°12.32 11.3 315 18 101480 60
2003-08-27 08:09 51°22.73 3°12.71 11.2 318 18 101470 59
2003-08-27 08:10 51°22.76 3°13.06 11.8 312 18 101470 60
2003-08-27 08:11 51°22.8 3°13.44 10.6 313 18.1 101480 61
2003-08-27 08:13 51°22.84 3°13.87 9 314 18 101480 59
2003-08-27 08:14 51°22.87 3°14.2 11.2 41 18 101480 62
2003-08-27 08:15 51°23.05 3°14.31 15.6 6 18 101480 60
2003-08-27 08:16 51°23.28 3°14.33 15.1 353 18 101470 60
2003-08-27 08:17 51°23.51 3°14.35 13.1 356 18 101480 61
2003-08-27 08:18 51°23.77 3°14.38 14.3 348 18 101460 61
2003-08-27 08:19 51°24.03 3°14.41 13.4 359 18 101480 59
2003-08-27 08:21 51°24.31 3°14.45 13.3 355 18 101480 57
2003-08-27 08:22 51°24.53 3°14.41 12.5 9 18 101480 59
2003-08-27 08:23 51°24.65 3°14.14 13.2 51 18 101460 61
2003-08-27 08:24 51°24.61 3°13.71 12.8 45 17.9 101470 59
2003-08-27 08:25 51°24.56 3°13.25 11.1 47 17.8 101470 56
2003-08-27 08:26 51°24.51 3°12.78 11.6 57 17.8 101480 57
2003-08-27 08:28 51°24.45 3°12.25 11.5 45 17.8 101460 56
2003-08-27 08:29 51°24.4 3°11.82 11.2 44 17.8 101470 58
2003-08-27 08:30 51°24.36 3°11.4 9.4 57 17.8 101470 60
2003-08-27 08:31 51°24.32 3°11.01 11 59 17.8 101460 58
2003-08-27 08:32 51°24.29 3°10.63 11.5 55 17.8 101470 62
2003-08-27 08:33 51°24.26 3°10.22 11 54 17.8 101470 58
2003-08-27 08:34 51°24.23 3°9.81 12.1 55 17.8 101470 59
2003-08-27 08:36 51°24.2 3°9.4 11.7 49 17.8 101470 62
2003-08-27 08:37 51°24.17 3°8.93 10.2 42 17.8 101470 61
2003-08-27 08:38 51°24.14 3°8.51 11.4 56 17.9 101460 62
2003-08-27 08:39 51°24.11 3°8.04 11.5 48 17.9 101470 63
2003-08-27 08:41 51°24.09 3°7.62 11.7 52 17.8 101470 60
2003-08-27 08:42 51°24.07 3°7.14 11.7 42 17.9 101460 64
2003-08-27 08:43 51°24.07 3°6.78 13.5 47 17.8 101470 61
2003-08-27 08:44 51°24.06 3°6.32 13.4 51 17.8 101460 59
2003-08-27 08:45 51°24.05 3°5.89 12.2 49 17.7 101470 63
2003-08-27 08:47 51°24.16 3°5.45 13.5 30 17.8 101470 63
2003-08-27 08:48 51°24.28 3°5.06 13.8 34 17.8 101470 63
2003-08-27 08:49 51°24.39 3°4.66 12.2 40 17.7 101480 60
2003-08-27 08:50 51°24.5 3°4.24 12.6 32 17.7 101460 61
2003-08-27 08:52 51°24.59 3°3.86 12.9 39 17.7 101470 60
2003-08-27 08:53 51°24.7 3°3.44 12.6 38 17.7 101470 63
2003-08-27 08:54 51°24.78 3°3.11 13 35 17.6 101460 61
2003-08-27 08:55 51°24.9 3°2.8 12.5 28 17.6 101470 61
2003-08-27 08:56 51°25.08 3°2.44 12.5 33 17.7 101480 62
2003-08-27 08:58 51°25.24 3°2.09 14 26 17.8 101450 62
2003-08-27 08:59 51°25.43 3°1.69 12.5 19 17.8 101460 61
2003-08-27 09:00 51°25.56 3°1.42 12.9 23 17.7 101480 57
2003-08-27 09:02 51°25.76 3°0.99 12.9 15 17.8 101480 59
2003-08-27 09:03 51°25.92 3°0.68 14.1 9 17.8 101470 58
2003-08-27 09:04 51°26.12 3°0.48 12.5 3 17.8 101480 60
2003-08-27 09:05 51°26.33 3°0.36 12.4 4 17.7 101460 58
2003-08-27 09:06 51°26.55 3°0.27 14.1 359 17.8 101450 59
2003-08-27 09:07 51°26.76 3°0.21 13.5 353 17.9 101460 60
2003-08-27 09:08 51°27 3°0.21 13 346 17.9 101440 58
2003-08-27 09:09 51°27.19 3°0.23 13.7 352 17.9 101430 59
2003-08-27 09:11 51°27.44 3°0.22 14.4 3 17.9 101480 60
2003-08-27 09:12 51°27.65 3°0.21 14.7 357 17.8 101450 59
2003-08-27 09:13 51°27.87 3°0.19 14.4 353 17.8 101440 59
2003-08-27 09:14 51°28.08 3°0.2 13.8 357 17.8 101460 61
2003-08-27 09:15 51°28.29 3°0.21 14.1 356 17.8 101470 60
2003-08-27 09:16 51°28.5 3°0.22 12.9 1 17.7 101460 59
2003-08-27 09:17 51°28.72 3°0.24 14.4 358 17.7 101460 62
2003-08-27 09:18 51°28.95 3°0.25 13.7 2 17.7 101450 61
2003-08-27 09:19 51°29.18 3°0.27 13.5 2 17.7 101450 61
2003-08-27 09:21 51°29.43 3°0.28 12.1 1 17.6 101460 63
2003-08-27 09:22 51°29.64 3°0.29 13.1 360 17.6 101450 63
2003-08-27 09:23 51°29.87 3°0.31 11.9 356 17.6 101450 61
2003-08-27 09:24 51°30.08 3°0.32 12 353 17.6 101450 63
2003-08-27 09:25 51°30.32 3°0.37 13.3 352 17.6 101430 62
2003-08-27 09:26 51°30.56 3°0.41 13.6 352 17.6 101450 61
2003-08-27 09:27 51°30.79 3°0.46 10.9 350 17.6 101450 61
2003-08-27 09:29 51°31 3°0.5 12.3 352 17.6 101470 62
2003-08-27 09:30 51°31.27 3°0.55 12.3   17.7 101430 62
2003-08-27 09:31 51°31.48 3°0.59 11.8 1 17.7 101460 63
2003-08-27 09:32 51°31.76 3°0.64 13.3 4 17.7 101440 62
2003-08-27 09:34 51°32.01 3°0.69 12.3 353 17.6 101430 60
2003-08-27 09:35 51°32.24 3°0.73 12.6 356 17.6 101450 60
2003-08-27 09:36 51°32.49 3°0.78 11.4 354 17.7 101460 62
2003-08-27 09:37 51°32.69 3°0.81 12.6 357 17.8 101450 64
2003-08-27 09:38 51°32.88 3°0.85 12.1 359 17.7 101460 61
2003-08-27 09:39 51°33.1 3°0.89 12.6 1 17.7 101460 61
2003-08-27 09:40 51°33.3 3°0.93 10.9 3 17.6 101440 61
2003-08-27 09:41 51°33.52 3°0.97 13.5 353 17.6 101450 61
2003-08-27 09:42 51°33.76 3°1.01 11.9 358 17.6 101470 61
2003-08-27 09:43 51°33.98 3°1.04 11.5 3 17.5 101470 59
2003-08-27 09:45 51°34.24 3°1.01 13 14 17.5 101460 61
2003-08-27 09:46 51°34.44 3°0.84 11.9 23 17.6 101470 62
2003-08-27 09:47 51°34.56 3°0.49 9.6 34 17.6 101460 61
2003-08-27 09:48 51°34.52 3°0.11 9.9 48 17.5 101460 62
2003-08-27 09:49 51°34.4 2°59.75 9.3 58 17.4 101470 62
2003-08-27 09:51 51°34.23 2°59.33 8.4 55 17.4 101470 63
2003-08-27 09:52 51°34.09 2°59.04 7.3 37 17.4 101470 62
2003-08-27 09:53 51°33.94 2°58.71 6.3 55 17.3 101480 60
2003-08-27 09:54 51°33.79 2°58.41 6 38 17.3 101470 61
2003-08-27 09:55 51°33.62 2°58.09 5.4 57 17.3 101480 64
2003-08-27 09:56 51°33.44 2°57.77 6.3 69 17.4 101480 63
2003-08-27 09:57 51°33.27 2°57.47 6.3 61 17.3 101480 63
2003-08-27 09:58 51°33.09 2°57.17 5.7 55 17.3 101480 62
2003-08-27 09:59 51°32.9 2°56.87 8.3 62 17.4 101470 63
2003-08-27 10:00 51°32.68 2°56.77 1.8 42 17.3 101480 62
2003-08-27 10:01 51°32.44 2°56.83 1.7 21 17.3 101490 61
2003-08-27 10:02 51°32.17 2°56.88 1.1 61 17.2 101480 61
2003-08-27 10:03 51°31.91 2°56.94 2.6 30 17.3 101480 61
2003-08-27 10:04 51°31.67 2°57 1.7 19 17.4 101490 62
2003-08-27 10:05 51°31.4 2°57.06 3.1 5 17.6 101490 64
2003-08-27 10:07 51°31.12 2°57.12 2 16 17.6 101480 61
2003-08-27 10:08 51°30.84 2°57.01 3.7 76 17.7 101480 62
2003-08-27 10:09 51°30.64 2°56.66 7.9 58 17.6 101470 63
2003-08-27 10:10 51°30.5 2°56.33 9.6 48 17.6 101470 63
2003-08-27 10:11 51°30.36 2°56 8.6 53 17.5 101460 61
2003-08-27 10:12 51°30.23 2°55.67 6.9 54 17.4 101470 61
2003-08-27 10:13 51°30.11 2°55.32 8.9 53 17.4 101460 61
2003-08-27 10:14 51°29.98 2°54.98 9.1 51 17.3 101460 61
2003-08-27 10:16 51°29.81 2°54.51 7.2 47 17.3 101480 62
2003-08-27 10:17 51°29.75 2°54.18 9 38 17.3 101470 62
2003-08-27 10:18 51°29.78 2°53.77 12.5 32 17.4 101450 63
2003-08-27 10:19 51°29.91 2°53.41 13.2 26 17.4 101450 64
2003-08-27 10:20 51°30.07 2°53.17 12.3 18 17.4 101480 63
2003-08-27 10:22 51°30.29 2°52.97 12.8 22 17.5 101470 63
2003-08-27 10:23 51°30.48 2°52.79 12.2 17 17.5 101460 65
2003-08-27 10:24 51°30.67 2°52.62 11.8 18 17.4 101450 63
2003-08-27 10:25 51°30.85 2°52.46 11.6 25 17.5 101470 64
2003-08-27 10:26 51°30.95 2°52.15 11 40 17.4 101470 65
2003-08-27 10:27 51°30.88 2°51.78 7.1 76 17.4 101460 67
2003-08-27 10:28 51°30.75 2°51.48 7.2 66 17.3 101480 65
2003-08-27 10:29 51°30.62 2°51.18 6.8 65 17.3 101480 65
2003-08-27 10:30 51°30.49 2°50.85 5.6 68 17.2 101480 64
2003-08-27 10:31 51°30.34 2°50.54 6.8 65 17.3 101470 65
2003-08-27 10:32 51°30.17 2°50.17 6.2 65 17.3 101470 67
2003-08-27 10:33 51°30.02 2°49.84 7.6 67 17.3 101480 68
2003-08-27 10:34 51°29.88 2°49.53 6.8 69 17.2 101480 63
2003-08-27 10:36 51°29.72 2°49.21 7.5 65 17.2 101480 67
2003-08-27 10:37 51°29.57 2°48.86 5.9 69 17.2 101470 67
2003-08-27 10:38 51°29.41 2°48.57 4.7 58 17.3 101470 67
2003-08-27 10:39 51°29.23 2°48.33 4.8 72 17.2 101480 65
2003-08-27 10:40 51°29.02 2°48.1 1.6 62 17.3 101470 67
2003-08-27 10:41 51°28.8 2°48.17 5.1 306 17.3 101470 67
2003-08-27 10:42 51°28.62 2°48.42 8.2 314 17.4 101460 65
2003-08-27 10:43 51°28.47 2°48.71 7.6 304 17.5 101460 66
2003-08-27 10:44 51°28.29 2°49.06 7.8 308 17.5 101450 65
2003-08-27 10:45 51°28.15 2°49.34 5.3 312 17.5 101470 64
2003-08-27 10:46 51°27.98 2°49.65 6.8 316 17.5 101460 64
2003-08-27 10:47 51°27.83 2°49.94 5.7 308 17.5 101460 64
2003-08-27 10:49 51°27.64 2°50.24 5.2 312 17.6 101460 65
2003-08-27 10:50 51°27.4 2°50.33 1.6 62 17.6 101470 64
2003-08-27 10:51 51°27.21 2°50.12 5.4 65 17.6 101480 63
2003-08-27 10:52 51°27.08 2°49.83 5.9 64 17.6 101450 66
2003-08-27 10:53 51°26.95 2°49.52 7.8 73 17.5 101460 66
2003-08-27 10:54 51°26.82 2°49.17 6.7 65 17.4 101460 64
2003-08-27 10:55 51°26.71 2°48.87 6.9 68 17.3 101450 65
2003-08-27 10:56 51°26.58 2°48.52 5.6 62 17.3 101470 64
2003-08-27 10:57 51°26.46 2°48.2 6.4 68 17.3 101460 65
2003-08-27 10:58 51°26.34 2°47.88 7.1 78 17.3 101470 66
2003-08-27 10:59 51°26.22 2°47.54 8.1 64 17.3 101460 66
2003-08-27 11:01 51°26.09 2°47.18 6.3 52 17.3 101460 65
2003-08-27 11:02 51°25.98 2°46.89 6.7 56 17.3 101450 65
2003-08-27 11:03 51°25.87 2°46.59 6.7 62 17.2 101450 64
2003-08-27 11:04 51°25.76 2°46.3 5.7 72 17.2 101450 65
2003-08-27 11:05 51°25.63 2°45.96 3.9 77 17.3 101460 68
2003-08-27 11:06 51°25.39 2°45.82 0.8 54 17.4 101470 68
2003-08-27 11:08 51°25.05 2°45.84 0.7 12 17.5 101470 67
2003-08-27 11:09 51°24.8 2°45.81 1.6 335 17.6 101470 67
2003-08-27 11:10 51°24.55 2°45.79 1.9 8 17.8 101470 66
2003-08-27 11:11 51°24.32 2°45.77 2 341 17.8 101470 64
2003-08-27 11:12 51°24.07 2°45.75 1.5 315 18 101460 65
2003-08-27 11:13 51°23.77 2°45.72 1.7 316 18.1 101460 64
2003-08-27 11:15 51°23.51 2°45.69 2.5 341 18.1 101460 63
2003-08-27 11:16 51°23.25 2°45.66 2.5 229 18.2 101460 63
2003-08-27 11:17 51°23 2°45.63 2.1 357 18.2 101460 62
2003-08-27 11:18 51°22.69 2°45.59 2.3 40 18.4 101460 64
2003-08-27 11:20 51°22.42 2°45.57 1.7 323 18.4 101460 62
2003-08-27 11:21 51°22.17 2°45.55 2.6 318 18.4 101460 61
2003-08-27 11:22 51°21.89 2°45.53 2.2 336 18.5 101450 61
2003-08-27 11:23 51°21.62 2°45.51 1 315 18.6 101460 60
2003-08-27 11:25 51°21.33 2°45.49 3.2 284 18.7 101450 61
2003-08-27 11:26 51°21.1 2°45.65 5.5 301 18.7 101430 59
2003-08-27 11:27 51°20.89 2°45.9 6.6 303 18.7 101430 61
2003-08-27 11:28 51°20.68 2°46.21 7.4 299 18.6 101420 61
2003-08-27 11:29 51°20.52 2°46.49 9 306 18.5 101420 60
2003-08-27 11:31 51°20.3 2°46.87 7.4 303 18.4 101430 61
2003-08-27 11:32 51°20.05 2°47.29 8.6 304 18.4 101410 61
2003-08-27 11:33 51°19.87 2°47.6 7.4 300 18.3 101420 62
2003-08-27 11:35 51°19.61 2°48.05 9.9 307 18.3 101420 63
2003-08-27 11:36 51°19.43 2°48.37 8.5 309 18.2 101410 63
2003-08-27 11:37 51°19.24 2°48.7 7.3 305 18.1 101420 62
2003-08-27 11:39 51°19.05 2°49.07 9.5 313 18.1 101420 63
2003-08-27 11:40 51°18.87 2°49.44 7.9 309 18 101420 63
2003-08-27 11:41 51°18.69 2°49.82 8.3 305 18.1 101420 62
2003-08-27 11:43 51°18.52 2°50.16 8.4 307 18.2 101420 64
2003-08-27 11:44 51°18.33 2°50.54 10.6 313 18.2 101410 65
2003-08-27 11:45 51°18.15 2°50.88 9.2 309 18.1 101400 63
2003-08-27 11:46 51°18 2°51.17 8.7 304 18.1 101420 63
2003-08-27 11:47 51°17.81 2°51.54 7.5 314 18.1 101420 64
2003-08-27 11:49 51°17.59 2°51.93 8.2 43 18.1 101400 64
2003-08-27 11:50 51°17.38 2°52.17 6 306 18.1 101420 62
2003-08-27 11:52 51°17.1 2°52.44 5 314 18.2 101420 63
2003-08-27 11:53 51°16.84 2°52.71 6.2 308 18.3 101420 62
2003-08-27 11:54 51°16.59 2°52.94 7 303 18.4 101410 64
2003-08-27 11:55 51°16.36 2°53.16 6.4 307 18.3 101420 62
2003-08-27 11:57 51°16.15 2°53.37 7.6 297 18.3 101420 62
2003-08-27 11:58 51°15.93 2°53.58 6 313 18.4 101420 62
2003-08-27 11:59 51°15.63 2°53.87 6.1 305 18.4 101420 62
2003-08-27 12:01 51°15.39 2°54.09 6.8 305 18.4 101420 62
2003-08-27 12:02 51°15.17 2°54.34 7.5 307 18.4 101410 60
2003-08-27 12:03 51°14.93 2°54.59 5.7 304 18.4 101410 61
2003-08-27 12:04 51°14.69 2°54.79 6.9 313 18.5 101420 62
2003-08-27 12:06 51°14.45 2°54.98 8.3 315 18.5 101410 61